Regional Weather Roundup
Issued by NWS

Home | Current Version | Previous Version | Text Only | Print | Product List | Glossary Off
Versions: 1 2 3 4 5 6 7 8 9 10 11 12 13 14 15 16 17 18 19 20 21 22 23 24 25 26 27 28 29 30 31 32 33 34 35 36 37 38 39 40 41 42 43 44 45 46 47 48 49 50

000
ASUS43 KMKX 291921
RWRWI

WISCONSIN REGIONAL WEATHER ROUNDUP
NATIONAL WEATHER SERVICE MILWAUKEE/SULLIVAN WI
200 PM CDT SAT APR 29 2017

NOTE: "FAIR" INDICATES FEW OR NO CLOUDS BELOW 12,000 FEET WITH NO
SIGNIFICANT WEATHER AND/OR OBSTRUCTIONS TO VISIBILITY.

WIZ001-002-006>008-014>016-023>028-292000-
NORTHWEST WISCONSIN

CITY           SKY/WX    TMP DP  RH WIND       PRES   REMARKS
SUPERIOR ARPT  SUNNY     47  20  33 NE10      30.36S
ASHLAND        CLOUDY    46  22  38 N16       30.37R
HAYWARD        MOSUNNY   51  22  31 N13       30.31R
SIREN          MOSUNNY   53  16  23 CALM      30.30S
CUMBERLAND     MOSUNNY   50  21  32 E12       30.29R
RICE LAKE      MOSUNNY   53  24  32 N9        30.29F
CHETEK         MOSUNNY   52  26  37 E7        30.28R
LADYSMITH      MOSUNNY   52  25  35 NE3       30.30S
EAU CLAIRE     CLOUDY    52  25  35 E14       30.26S
MENOMONIE      CLOUDY    52  25  35 NE12      30.27F
NEW RICHMOND   PTSUNNY   53  20  27 NE14      30.28S
OSCEOLA        MOSUNNY   53  23  31 E9        30.31S
$$

WIZ003>005-009-010-017-018-292000-
NORTH CENTRAL WISCONSIN

CITY           SKY/WX    TMP DP  RH WIND       PRES   REMARKS
MANITOWISH WTR NOT AVBL
ARBOR VITAE    CLOUDY    49  23  36 NE9       30.30R
WOODRUFF       CLOUDY    49  23  36 NE9       30.30R
RHINELANDER    CLOUDY    50  25  37 E9        30.30R
EAGLE RIVER    MOSUNNY   47  19  32 E3        30.30R
LAND O LAKES   CLOUDY    47  19  32 SE9       30.32R
PHILLIPS       MOSUNNY   48  24  38 N10G17    30.28R
TOMAHAWK       MOSUNNY   48  23  36 NE7       30.30R
MEDFORD        PTSUNNY   48  26  41 NE7       30.27R
MERRILL        MOSUNNY   50  26  39 E9        30.29R
$$

WIZ029-030-035-036-043>047-292000-
CENTRAL WISCONSIN

CITY           SKY/WX    TMP DP  RH WIND       PRES   REMARKS
WAUSAU         MOSUNNY   50  26  39 NE10      30.26R
MOSINEE        CLOUDY    48  28  46 NE9       30.28R
MARSHFIELD     CLOUDY    49  27  42 E16       30.26R
STEVENS POINT  CLOUDY    47  25  42 E12       30.28R
WAUPACA        CLOUDY    49  30  47 NE8       30.30R
WAUTOMA        CLOUDY    47  29  49 NE16      30.27R
WISC RAPIDS    CLOUDY    49  27  42 E14       30.28R
CAMP DOUGLAS   CLOUDY    48  28  46 E13G18    30.25S
$$

WIZ011>013-019>022-031-037>040-048>050-292000-
NORTHEAST WISCONSIN

CITY           SKY/WX    TMP DP  RH WIND       PRES   REMARKS
ANTIGO         MOSUNNY   49  29  46 NE12      30.28R
SHAWANO        CLOUDY    50  31  47 E13       30.30R
OCONTO         NOT AVBL
STURGEON BAY   CLOUDY    44  31  60 NE8       30.32R
GREEN BAY      CLOUDY    46  32  58 NE18      30.31R
MANITOWOC      CLOUDY    41  29  62 NE13G23   30.31R
APPLETON       CLOUDY    45  25  45 NE12G23   30.29R
CLINTONVILLE   CLOUDY    46  28  49 NE8G17    30.30R
OSHKOSH        CLOUDY    45  30  55 NE13      30.28R
$$

WIZ032>034-041-042-053>061-292000-
SOUTHWEST WISCONSIN

CITY           SKY/WX    TMP DP  RH WIND       PRES   REMARKS
LA CROSSE      CLOUDY    50  27  40 E8        30.25R
SPARTA         CLOUDY    48  28  45 NE14G21   30.27R
VIROQUA        CLOUDY    46  30  53 E15       30.24R
BOSCOBEL       CLOUDY    48  30  49 NE10      30.24S
PRAIRIE DU CHI CLOUDY    46  30  52 NE12      30.22S
PLATTEVILLE    PTSUNNY   45  36  71 NE22G28   30.17F
$$

WIZ056-057-062-063-064-067-068-292000-
SOUTH CENTRAL WISCONSIN

CITY           SKY/WX    TMP DP  RH WIND       PRES   REMARKS
REEDSBURG      NOT AVBL
BARABOO/DELLS  CLOUDY    44  30  57 E9G16     30.26R
LONE ROCK      CLOUDY    46  31  55 E17       30.24S
MINERAL POINT  CLOUDY    45  34  65 NE21G26   30.19F
MADISON        CLOUDY    45  33  63 E13G22    30.25R
MIDDLETON      CLOUDY    46  34  64 E13       30.24F
WATERTOWN      CLOUDY    44  31  60 E15       30.26S
MONROE         CLOUDY    45  34  65 NE25      30.14F
JANESVILLE     CLOUDY    46  32  57 NE18      30.19F
$$

WIZ051-052-058>065-066-070>072-292000-
SOUTHEAST WISCONSIN

CITY           SKY/WX    TMP DP  RH WIND       PRES   REMARKS
MILWAUKEE      CLOUDY    41  32  70 N15G31    30.27S
WAUKESHA       SUNNY     39  28  65 NE16G24   30.28R WCI  30
MILWAUKEE/TIMM MOSUNNY   39  28  65 NE16G24   30.28R WCI  30
RACINE         CLOUDY    40  31  70 N17G25    30.27S WCI  31
KENOSHA        CLOUDY    41  31  67 NE17G25   30.23F
FOND DU LAC    CLOUDY    46  31  55 E13       30.27R
SHEBOYGAN      CLOUDY    40  35  83 NE22      30.29R WCI  30
WEST BEND      CLOUDY    41  32  70 NE13G20   30.28S
JUNEAU         CLOUDY    44  31  60 NE13      30.27S
$$

LSZ147-162-292000-
LAKE SUPERIOR

STATION/POSITION TIME  TEMP    WIND        PRES    WAVE
                       AIR SEA DIR/SP/G            HT/PER
                 (UTC) (F)     (DEG/KT/KT) (MB)    (FT/S)
DEVILS ISLAND    1900   37      10/  5/  5 1030.0R
SAXON HARBOR     1830   39      10/  9/ 12 1028.4R
$$

LMZ867-665-643>646-292000-
LAKE MICHIGAN

STATION/POSITION TIME  TEMP    WIND        PRES    WAVE
                       AIR SEA DIR/SP/G            HT/PER
                 (UTC) (F)     (DEG/KT/KT) (MB)    (FT/S)
CHAMBERS ISLAND  1840   43      40/ 11/ 18 1026.1S
N MID LAKE BUOY  1850   38 37   CALM  /  2 1027.8S   1/ 3
NORTHPORT PIER   1840   40     130/  5/  7 1026.4S
KEWAUNEE LAKESHO 1900   40      50/  6/ 12 1026.5
SHEBOYGAN LAKESH 1900   38      40/ 23/ 24 1026.1R
PORT WASHINGTON  1840   40      40/ 17/ 24 1025.7F
MILWAUKEE LAKESH 1900   39      20/ 21/ 24   N/A
S MID LAKE BUOY  1850   40 41   10/ 19/ 23 1023.4F   6/ 6
KENOSHA   LAKESH 1900   40      20/ 27/ 30 1023.0
$$

TC  - TEMPERATURE IN CELSIUS
VSB - VISIBILITY IN STATUTE MILES
WCI - WIND CHILL INDEX
HX  - HEAT INDEX





USA.gov is the U.S. government's official web portal to all federal, state and local government web resources and services.